Volver al catálogo

STARLINK-2751

ActivoComunicacionesVLEO
NORAD 48685·PAYLOAD·🇺🇸 United States

Lanzado May 26, 2021 desde Cape Canaveral Space Force Station

Loading…

Próximos Pases (próximas 24 horas)

TLE

ActualizadoSource: CelesTrak SupGP

Época: Sep 14, 2026, 21:08 UTC

1 48685C 21044AZ  26257.88104167  .00054095  00000+0  17402-2 0  2574
2 48685  53.1582 264.4547 0001260  99.1321 242.8633 15.31662469    15

Sigue STARLINK-2751 en tiempo real con AllMySat

Download on the App Store